This is the latest recevied weather packets stored in our database for station/object AB8Y-13. If no packets are shown the sender has not sent any weather packets the latest 10 day(s).
| Time | Temp. | Humidity | Pressure | Rain* | Wind** | Luminosity | Snow |
|---|---|---|---|---|---|---|---|
| 1777300220 | 16.67° C | 52% | 1018.8 hPa | 0 mm | - | 401 W/m² | - |
| 1777299915 | 16.67° C | 51% | 1018.8 hPa | 0 mm | - | 428 W/m² | - |
| 1777299613 | 16.11° C | 53% | 1018.7 hPa | 0 mm | - | 461 W/m² | - |
| 1777299311 | 16.11° C | 53% | 1018.8 hPa | 0 mm | - | 471 W/m² | - |
| 1777299008 | 15.56° C | 54% | 1019.2 hPa | 0 mm | - | 479 W/m² | - |
| 1777298705 | 15.56° C | 54% | 1019.6 hPa | 0 mm | - | 441 W/m² | - |
| 1777298401 | 15.56° C | 55% | 1019.6 hPa | 0 mm | - | 445 W/m² | - |
| 1777298098 | 15° C | 58% | 1019.7 hPa | 0 mm | - | 394 W/m² | - |
| 1777297796 | 14.44° C | 59% | 1019.8 hPa | 0 mm | - | 348 W/m² | - |
| 1777297495 | 14.44° C | 59% | 1019.6 hPa | 0 mm | - | 373 W/m² | - |
| 1777297192 | 13.89° C | 60% | 1019.7 hPa | 0 mm | - | 326 W/m² | - |
| 1777296890 | 13.89° C | 62% | 1019.9 hPa | 0 mm | - | 257 W/m² | - |
| 1777296585 | 13.89° C | 61% | 1019.9 hPa | 0 mm | - | 281 W/m² | - |
| 1777296251 | 13.89° C | 62% | 1019.8 hPa | 0 mm | - | 323 W/m² | - |
| 1777295947 | 13.89° C | 63% | 1019.7 hPa | 0 mm | - | 333 W/m² | - |
| 1777295645 | 13.33° C | 64% | 1019.6 hPa | 0 mm | - | 344 W/m² | - |
| 1777295342 | 13.33° C | 65% | 1019.6 hPa | 0 mm | - | 339 W/m² | - |
| 1777295040 | 12.78° C | 65% | 1019.7 hPa | 0 mm | - | 329 W/m² | - |
| 1777294736 | 12.22° C | 68% | 1019.9 hPa | 0 mm | - | 340 W/m² | - |
| 1777294431 | 11.67° C | 67% | 1020 hPa | 0 mm | - | 301 W/m² | - |
| 1777294129 | 11.67° C | 69% | 1020 hPa | 0 mm | - | 244 W/m² | - |
| 1777293825 | 11.11° C | 69% | 1020 hPa | 0 mm | - | 226 W/m² | - |
| 1777293526 | 11.11° C | 70% | 1019.9 hPa | 0 mm | - | 193 W/m² | - |
| 1777293221 | 11.11° C | 70% | 1019.9 hPa | 0 mm | - | 165 W/m² | - |
| 1777292920 | 11.11° C | 73% | 1020 hPa | 0 mm | - | 185 W/m² | - |
* Rain latest hour (hover to see other rain measurements)
** Current wind speed in m/s (hover to see current wind gust speed)